Hill City, KS

9:50 PM CDT on June 27, 2017 (GMT -0500)
Hill City Municipal

Weather History for KHLC - December, 2014

Change the Weather History Date:

Wednesday, December 24, 2014

  Actual Average Record
Temperature  
Mean Temperature 35 °F 29 °F  
Max Temperature 47 °F 41 °F 64 °F (1955)
Min Temperature 23 °F 16 °F -17 °F (1924)
Degree Days  
Heating Degree Days 30    
Moisture  
Dew Point 17 °F    
Average Humidity 55    
Maximum Humidity 78    
Minimum Humidity 27    
Precipitation  
Precipitation 0.00 in 0.02 in 0.11 in (1997)
Month to date precipitation 0.27 0.58  
Year to date precipitation 21.72 22.81  
Sea Level Pressure  
Sea Level Pressure 29.91 in    
Wind  
Wind Speed 12 mph (West)    
Max Wind Speed 20 mph    
Max Gust Speed 23 mph    
Visibility 10 miles    
Events      
T = Trace of Precipitation, MM = Missing Value Source: NWS Daily Summary

Daily Weather History Graph

Daily Weather History Graph

Search for Another Location

Airport or City:

Trip Planner

Search our weather history database for the weather conditions in past years. The results will help you decide how hot, cold, wet, or windy it might be!

Date:

Astronomy

Dec. 24, 2014 Rise Set
Actual Time 7:57 AM CST 5:20 PM CST
Civil Twilight 7:26 AM CST 5:51 PM CST
Nautical Twilight 6:53 AM CST 6:24 PM CST
Astronomical Twilight 6:20 AM CST 6:57 PM CST
Moon 9:50 AM CST (12/24) 8:46 PM CST (12/24)
Length of Visible Light 10h 24m
Length of Day
9h 23m
Waxing Crescent, 10% of the Moon is Illuminated
Dec 24
Waxing Crescent
Dec 28
First Quarter
Jan 4
Full
Jan 13
Last Quarter
Jan 20
New

Hourly Weather History & Observations

Time (CST) Temp. Windchill Dew Point Humidity Pressure Visibility Wind Dir Wind Speed Gust Speed Precip Events Conditions
12:53 AM 28.0 °F 17.5 °F 21.0 °F 75% 30.10 in 10.0 mi NW 12.7 mph - N/A   Clear
1:53 AM 28.0 °F 17.0 °F 21.0 °F 75% 30.10 in 10.0 mi NW 13.8 mph - N/A   Partly Cloudy
2:53 AM 28.9 °F 16.1 °F 21.0 °F 72% 30.09 in 10.0 mi NNW 19.6 mph - N/A   Mostly Cloudy
3:53 AM 26.1 °F 13.6 °F 19.0 °F 75% 30.08 in 10.0 mi NW 16.1 mph - N/A   Clear
4:53 AM 26.1 °F 16.8 °F 18.0 °F 71% 30.06 in 10.0 mi NW 9.2 mph - N/A   Clear
5:53 AM 26.1 °F 15.0 °F 18.0 °F 71% 30.05 in 10.0 mi NW 12.7 mph 23.0 mph N/A   Clear
6:53 AM 24.1 °F 11.5 °F 17.1 °F 75% 30.05 in 10.0 mi NW 15.0 mph - N/A   Clear
7:53 AM 23.0 °F 11.7 °F 17.1 °F 78% 30.06 in 10.0 mi NW 11.5 mph - N/A   Clear
8:53 AM 25.0 °F 16.3 °F 18.0 °F 75% 30.04 in 10.0 mi West 8.1 mph - N/A   Clear
9:53 AM 28.9 °F 18.6 °F 19.0 °F 67% 30.04 in 10.0 mi WNW 12.7 mph - N/A   Clear
10:53 AM 34.0 °F 26.0 °F 19.9 °F 56% 30.01 in 10.0 mi West 10.4 mph - N/A   Clear
11:53 AM 37.9 °F 30.5 °F 19.0 °F 47% 29.98 in 10.0 mi WNW 11.5 mph - N/A   Clear
12:53 PM 39.9 °F 33.9 °F 19.9 °F 45% 29.91 in 10.0 mi WSW 9.2 mph - N/A   Clear
1:53 PM 42.1 °F 35.2 °F 19.9 °F 41% 29.86 in 10.0 mi WSW 12.7 mph - N/A   Clear
2:53 PM 45.0 °F 40.1 °F 18.0 °F 34% 29.81 in 10.0 mi WSW 9.2 mph 18.4 mph N/A   Clear
3:53 PM 46.0 °F 40.2 °F 15.1 °F 29% 29.80 in 10.0 mi SW 12.7 mph - N/A   Clear
4:53 PM 45.0 °F 40.6 °F 12.9 °F 27% 29.80 in 10.0 mi WSW 8.1 mph - N/A   Clear
5:53 PM 39.0 °F 34.8 °F 14.0 °F 36% 29.78 in 10.0 mi South 5.8 mph - N/A   Clear
6:53 PM 33.1 °F 27.7 °F 14.0 °F 46% 29.77 in 10.0 mi SW 5.8 mph - N/A   Clear
7:53 PM 35.1 °F 27.4 °F 14.0 °F 42% 29.74 in 10.0 mi SSW 10.4 mph - N/A   Clear
8:53 PM 34.0 °F 28.8 °F 14.0 °F 44% 29.72 in 10.0 mi SW 5.8 mph - N/A   Clear
9:53 PM 33.1 °F 26.9 °F 15.1 °F 48% 29.70 in 10.0 mi SW 6.9 mph - N/A   Clear
10:53 PM 34.0 °F 26.6 °F 16.0 °F 48% 29.67 in 10.0 mi SW 9.2 mph - N/A   Clear
11:53 PM 35.1 °F - 15.1 °F 44% 29.62 in 10.0 mi Calm Calm - N/A   Clear